Weather History for Linden, NJ

Change the Weather History Date:

Monday, October 7, 2013

  Actual Average (KEWR) Record (KEWR)
Temperature  
Mean Temperature 70 °F 60 °F  
Max Temperature 81 °F 68 °F 88 °F (1944)
Min Temperature 60 °F 51 °F 38 °F (1954)
Degree Days  
Heating Degree Days 0 6  
Month to date heating degree days 37  
Since 1 July heating degree days 82  
Cooling Degree Days 6 1  
Month to date cooling degree days 8  
Year to date cooling degree days 1182  
Growing Degree Days 20 (Base 50)    
Moisture  
Dew Point 65 °F    
Average Humidity 86    
Maximum Humidity 95    
Minimum Humidity 61    
Precipitation  
Precipitation 0.38 in 0.12 in 2.69 in (1972)
Month to date precipitation 0.83  
Year to date precipitation 36.02  
Snow  
Snow 0.00 in 0.00 in 0.00 in (2002)
Month to date snowfall 0.0  
Since 1 July snowfall 0.0  
Snow Depth -    
Sea Level Pressure  
Sea Level Pressure 29.93 in    
Wind  
Wind Speed 5 mph (SW)    
Max Wind Speed 26 mph    
Max Gust Speed 36 mph    
Visibility 8 miles    
Events Rain    
T = Trace of Precipitation, MM = Missing Value Source: NWS Daily Summary

Daily Weather History Graph

Daily Weather History Graph

Search for Another Location

Airport:

Trip Planner

Search our weather history database for the weather conditions in past years. The results will help you decide how hot, cold, wet, or windy it might be!

Date:

Astronomy

Oct. 07, 2013 Rise Set
Actual Time 6:59 AM EDT 6:28 PM EDT
Civil Twilight 6:32 AM EDT 6:56 PM EDT
Nautical Twilight 6:00 AM EDT 7:27 PM EDT
Astronomical Twilight 5:29 AM EDT 7:59 PM EDT
Moon 9:47 AM EDT (10/7) 8:10 PM EDT (10/7)
Length of Visible Light 12h 23m
Length of Day
11h 29m
Waxing Crescent, 8% of the Moon is Illuminated
Oct 7
Waxing Crescent
Oct 11
First Quarter
Oct 18
Full
Oct 26
Last Quarter
Nov 3
New

Hourly Weather History & Observations

Time (EDT) Temp. Heat Index Dew Point Humidity Pressure Visibility Wind Dir Wind Speed Gust Speed Precip Events Conditions
12:15 AM 69.8 °F - 68.0 °F 94% 30.04 in 5.0 mi SE 3.5 mph - N/A   Mostly Cloudy
12:35 AM 69.6 °F - 67.8 °F 94% 30.04 in 5.0 mi SE 3.5 mph - N/A   Scattered Clouds
12:55 AM 69.6 °F - 67.8 °F 94% 30.03 in 7.0 mi SSE 4.6 mph - N/A   Scattered Clouds
1:15 AM 69.8 °F - 67.6 °F 93% 30.03 in 7.0 mi SSE 4.6 mph - N/A   Scattered Clouds
1:35 AM 69.3 °F - 67.5 °F 94% 30.03 in 7.0 mi SSE 3.5 mph - N/A   Clear
1:55 AM 68.9 °F - 67.1 °F 94% 30.02 in 7.0 mi Calm Calm - N/A   Clear
2:15 AM 68.9 °F - 67.1 °F 94% 30.01 in 7.0 mi Calm Calm - N/A   Clear
2:35 AM 68.4 °F - 66.6 °F 94% 30.01 in 7.0 mi Calm Calm - N/A   Clear
2:55 AM 68.4 °F - 66.6 °F 94% 30.01 in 7.0 mi Calm Calm - N/A   Scattered Clouds
3:15 AM 68.2 °F - 66.6 °F 95% 30.00 in 5.0 mi Calm Calm - N/A   Scattered Clouds
3:35 AM 67.6 °F - 66.2 °F 95% 29.99 in 5.0 mi Calm Calm - N/A   Scattered Clouds
3:55 AM 68.0 °F - 66.6 °F 95% 29.98 in 7.0 mi Calm Calm - N/A   Scattered Clouds
4:15 AM 68.0 °F - 66.4 °F 95% 29.98 in 5.0 mi Calm Calm - N/A   Clear
4:35 AM 67.6 °F - 66.0 °F 95% 29.98 in 7.0 mi Calm Calm - N/A   Scattered Clouds
4:55 AM 68.7 °F - 67.1 °F 95% 29.97 in 10.0 mi South 3.5 mph - N/A   Scattered Clouds
5:15 AM 68.9 °F - 67.1 °F 94% 29.97 in 10.0 mi South 4.6 mph - N/A   Scattered Clouds
5:35 AM 68.9 °F - 67.3 °F 95% 29.97 in 7.0 mi South 3.5 mph - N/A   Mostly Cloudy
5:55 AM 69.1 °F - 67.3 °F 94% 29.97 in 7.0 mi Calm Calm - N/A   Overcast
6:15 AM 69.4 °F - 67.6 °F 94% 29.96 in 7.0 mi South 3.5 mph - N/A   Overcast
6:35 AM 69.8 °F - 68.0 °F 94% 29.96 in 10.0 mi South 4.6 mph - N/A   Overcast
6:55 AM 70.2 °F - 68.2 °F 93% 29.96 in 10.0 mi South 5.8 mph - N/A   Overcast
7:15 AM 70.7 °F - 68.4 °F 92% 29.95 in 10.0 mi South 5.8 mph - N/A   Overcast
7:35 AM 70.9 °F - 68.5 °F 92% 29.95 in 10.0 mi South 6.9 mph - N/A   Overcast
7:55 AM 71.1 °F - 68.5 °F 92% 29.94 in 10.0 mi South 8.1 mph - N/A   Overcast
8:15 AM 71.6 °F - 68.5 °F 90% 29.94 in 10.0 mi South 6.9 mph - N/A   Overcast
8:35 AM 72.0 °F - 68.9 °F 90% 29.93 in 10.0 mi SSE 8.1 mph - N/A   Overcast
8:55 AM 72.5 °F - 68.9 °F 88% 29.92 in 10.0 mi SSE 6.9 mph - N/A   Overcast
9:15 AM 73.0 °F - 69.1 °F 87% 29.91 in 10.0 mi SSE 6.9 mph - N/A   Overcast
9:35 AM 73.9 °F - 69.1 °F 85% 29.91 in 10.0 mi SSE 9.2 mph - N/A   Overcast
9:55 AM 74.8 °F - 69.3 °F 83% 29.90 in 10.0 mi SSE 8.1 mph 18.4 mph N/A   Overcast
10:15 AM 75.4 °F - 69.1 °F 81% 29.90 in 10.0 mi South 10.4 mph 16.1 mph N/A   Overcast
10:35 AM 75.7 °F - 68.9 °F 79% 29.89 in 10.0 mi South 8.1 mph - N/A   Overcast
10:55 AM 76.5 °F - 68.9 °F 77% 29.88 in 10.0 mi South 12.7 mph 17.3 mph N/A   Overcast
11:15 AM 74.1 °F - 69.6 °F 86% 29.88 in 2.5 mi South 15.0 mph 20.7 mph 0.05 in Rain Rain
11:35 AM 73.9 °F - 70.0 °F 87% 29.87 in 5.0 mi South 10.4 mph 17.3 mph 0.05 in   Light Drizzle
11:55 AM 74.7 °F - 70.2 °F 86% 29.86 in 4.0 mi SSW 9.2 mph - 0.05 in   Drizzle
12:15 PM 75.2 °F - 70.9 °F 86% 29.85 in 10.0 mi South 6.9 mph - N/A   Overcast
12:35 PM 74.3 °F - 71.2 °F 90% 29.84 in 5.0 mi South 9.2 mph - 0.02 in   Overcast
12:55 PM 75.6 °F - 71.2 °F 86% 29.83 in 10.0 mi South 10.4 mph 19.6 mph 0.02 in   Overcast
1:15 PM 76.3 °F - 70.9 °F 83% 29.82 in 10.0 mi South 12.7 mph 20.7 mph N/A   Overcast
1:35 PM 78.4 °F - 70.7 °F 77% 29.80 in 10.0 mi South 16.1 mph 24.2 mph N/A   Overcast
1:55 PM 79.5 °F - 68.9 °F 70% 29.80 in 10.0 mi SSW 18.4 mph 28.8 mph N/A   Mostly Cloudy
2:15 PM 80.6 °F 83.4 °F 68.4 °F 66% 29.79 in 10.0 mi SSW 17.3 mph 34.5 mph N/A   Mostly Cloudy
2:35 PM 80.1 °F 82.7 °F 68.4 °F 67% 29.78 in 10.0 mi SSW 18.4 mph 25.3 mph N/A   Mostly Cloudy
2:55 PM 81.3 °F 84.3 °F 68.7 °F 65% 29.78 in 10.0 mi SSW 16.1 mph 28.8 mph N/A   Mostly Cloudy
3:15 PM 80.8 °F 82.9 °F 66.4 °F 61% 29.82 in 10.0 mi West 26.5 mph 35.7 mph N/A   Mostly Cloudy
3:35 PM 69.8 °F - 63.9 °F 81% 29.84 in 4.0 mi West 11.5 mph 20.7 mph 0.04 in Rain Heavy Rain
3:55 PM 68.0 °F - 64.6 °F 89% 29.84 in 4.0 mi West 9.2 mph 17.3 mph 0.14 in Rain Light Rain
4:15 PM 67.5 °F - 64.6 °F 90% 29.85 in 3.0 mi WSW 4.6 mph - 0.10 in Rain Rain
4:35 PM 67.6 °F - 64.8 °F 90% 29.85 in 7.0 mi West 5.8 mph - 0.12 in Rain Light Rain
4:55 PM 67.8 °F - 64.9 °F 90% 29.85 in 7.0 mi SW 3.5 mph - 0.13 in   Light Drizzle
5:15 PM 68.0 °F - 65.3 °F 91% 29.86 in 7.0 mi West 5.8 mph - N/A Rain Light Rain
5:35 PM 68.2 °F - 65.3 °F 90% 29.89 in 7.0 mi West 6.9 mph - N/A Rain Rain
5:55 PM 63.7 °F - 59.5 °F 86% 29.90 in 5.0 mi WNW 13.8 mph 19.6 mph 0.03 in Rain Rain
6:15 PM 62.8 °F - 59.0 °F 87% 29.91 in 7.0 mi WNW 9.2 mph 20.7 mph 0.01 in Rain Rain
6:35 PM 62.4 °F - 58.5 °F 87% 29.91 in 10.0 mi WNW 8.1 mph - 0.01 in   Mostly Cloudy
6:55 PM 62.2 °F - 58.5 °F 87% 29.92 in 10.0 mi WNW 5.8 mph - 0.01 in   Mostly Cloudy
7:15 PM 62.4 °F - 58.1 °F 86% 29.93 in 10.0 mi WNW 8.1 mph - N/A   Overcast
7:35 PM 62.2 °F - 57.6 °F 85% 29.93 in 10.0 mi WNW 6.9 mph - N/A   Overcast
7:55 PM 62.4 °F - 57.4 °F 84% 29.94 in 10.0 mi West 3.5 mph - N/A   Overcast
8:15 PM 62.2 °F - 57.4 °F 84% 29.95 in 10.0 mi West 4.6 mph - N/A   Overcast
8:35 PM 62.2 °F - 57.2 °F 84% 29.95 in 10.0 mi West 4.6 mph - N/A   Overcast
8:55 PM 62.2 °F - 57.2 °F 84% 29.96 in 10.0 mi WNW 3.5 mph - N/A   Overcast
9:15 PM 62.2 °F - 56.7 °F 82% 29.96 in 10.0 mi West 4.6 mph - N/A   Overcast
9:35 PM 62.2 °F - 56.7 °F 82% 29.96 in 10.0 mi WNW 5.8 mph - N/A   Overcast
9:55 PM 61.7 °F - 56.8 °F 84% 29.96 in 10.0 mi WNW 5.8 mph - N/A   Overcast
10:15 PM 61.3 °F - 56.7 °F 85% 29.96 in 10.0 mi NW 8.1 mph - N/A   Scattered Clouds
10:35 PM 61.5 °F - 55.2 °F 80% 29.98 in 10.0 mi WNW 5.8 mph - N/A   Scattered Clouds
10:55 PM 61.7 °F - 53.6 °F 75% 29.99 in 10.0 mi WNW 5.8 mph - N/A   Scattered Clouds
11:15 PM 61.5 °F - 53.4 °F 75% 30.00 in 10.0 mi West 3.5 mph - N/A   Clear
11:35 PM 60.8 °F - 52.3 °F 74% 30.01 in 10.0 mi WNW 4.6 mph - N/A   Clear
11:55 PM 60.1 °F - 52.2 °F 75% 30.01 in 10.0 mi WNW 5.8 mph - N/A   Clear